STARLINK-3140, 49460

Orbit data source: Space-Track

STARLINK-3140, 49460 is a payload satellite owned by SpaceX/Seattle (US) in LEO that was launched on Sat, 13 Nov 2021 UTC via an FALCON 9 launch vehicle from the Air Force Eastern Test Range (AFETR). Payload-class satellites include a variety of spacecraft equipped with specific instruments for various scientific and technological missions. These include communications satellites like Starlink; space stations such as the ISS; scientific satellites like the Hubble; Earth observation satellites from companies like Planet Labs, Umbra, and HawkEye 360; GPS; miniature CubeSats for education and research; and military/defense satellites.

Loading next visibility...
Identifier
49460, 2021-104BE
Orbit
LEO
Country
Flag of USUS
Related business
Manufacturer
SpaceX/Seattle
Mission
Operational Commercial Communications
Bus & Motor
STARLINK, Unknown motor
Mass
290 kg wet, ~270 kg dry
Launch date (UTC)
2021-11-13 (5 years ago)
Launch vehicle
FALCON 9
Launch site
Air Force Eastern Test Range (AFETR)
Object type
Payload
Rocket body
Debris
Shape & HBR
Box + 1 Pan, 10.1 m
Radar Cross Section
13.562 m², Large (>1 m²)

Expand to show TLE details & history
Last TLE update: 1 week ago

TLE from 1 week ago
0 STARLINK-3140
1 49460U 21104BE  26154.43117869  .00000525  00000-0  51045-4 0  9999
2 49460  53.1815 194.1947 0001079  90.3656 269.7459 15.08833971251712
Epoch: 2026-06-03T10:20Z
TLE epoch observation values (Epoch: 2026-06-03T10:20:53.838Z)
Latitude
-0.00007°
Longitude
147.08043°
Altitude
540.659 km
Speed
7.593 km/s
True Right ascension
12h 56m 46s
True Declination
0° 00' 00"
Sunlit
Object was in full shadow at epoch
Visualization orbit readout
Latitude
Unknown
Longitude
Unknown
Altitude
Unknown
Speed
Unknown
Apparent Right ascension
Unknown
Apparent Declination
Unknown
Sunlit
N/A
Visualization observer readout
Local Sidereal Time
16:13:56
Azimuth
Unknown
Elevation
Unknown
Doppler factor
Unknown
Orbital elements
Apogee altitude
540.759 km
Perigee altitude
539.266 km
Semi-major axis
6,918.149 km
Eccentricity
0.00011
Inclination
53.1815°
RAAN
194.1947°
Arg. of periapsis
90.3656°
True anomaly
269.73354°
Mean anomaly
269.7459°
Eccentric anomaly
269.73972°
Mean motion
3.77188 °/min
Orbital period
95.44 mins
BSTAR
0.000051045
Loading maneuver chart data...
Computing Atmospheric mass density...
Loading historical data...
Loading historical data...
Loading historical data...
Loading historical data...
Loading historical data...
Loading historical data...
Loading historical data...

Documentation

Showing up to 5 results
|